Regional Weather Roundup
Issued by NWS Pendleton, OR

Home | Current Version | Previous Version | Text Only | Print | Product List | Glossary On
Versions: 1 2 3 4 5 6 7 8 9 10 11 12 13 14 15 16 17 18 19 20 21 22 23 24 25 26 27 28 29 30 31 32 33 34 35 36 37 38 39 40 41 42 43 44 45 46 47 48 49 50
000
ASUS46 KPDT 252010
RWRPDT
PENDLETON REGIONAL WEATHER ROUNDUP
NATIONAL WEATHER SERVICE PENDLETON OREGON
100 PM PDT MON JUL 25 2016

NOTE: FAIR INDICATES FEW OR NO CLOUDS BELOW 12,000 FEET WITH NO
SIGNIFICANT WEATHER AND/OR OBSTRUCTIONS TO VISIBILITY.

# INDICATES UNOFFICIAL STATION AND DATA

WAZ520-252110-
EAST SLOPES OF WASHINGTON CASCADES

CITY            SKY/WX      TMP DP  RH  WIND    PRES   REMARKS
#CLE ELUM HS    N/A         85  48  28  W7      29.96F
#CLE ELUM 2NW   N/A         84  46  27  SW3     N/A
#GLENWOOD       N/A         88  58  36  S2      29.91F
#MANASTASH CYN  N/A         83  55  38  W3      30.02F
#NELSON 3SW     N/A         82  55  40  NE1     30.09F
#NILE           N/A         90  51  26  CALM    29.18F HX 87
#RONALD 2NW     N/A         83  N/A N/A W3      30.11S
#TEANAWAY 4NE   N/A         88  57  35  W3      N/A
#TROUT LAKE 1NE N/A         86  59  40  E7      29.90F
$$

WAZ521-252110-
SIMCOE HIGHLANDS

CITY            SKY/WX      TMP DP  RH  WIND    PRES   REMARKS
#CENTERVILLE 1SWN/A         89  56  33  W5      29.85F
#GOLDENDALE 1NE N/A         89  35  15  CALM    N/A
#GOLDENDALE 4W  N/A         91  60  36  W8      30.01F HX 91
#GOODNOE HILLS  N/A         95  54  25  SW8     29.87F HX 93
#LYLE 6NE       N/A         80  59  49  S7      29.89F
$$

WAZ026-252110-
KITTITAS VALLEY

CITY            SKY/WX      TMP DP  RH  WIND    PRES   REMARKS
ELLENSBURG AP   SUNNY       92  53  27  E3      29.99F HX 90
#ELLENSBURG CWU N/A         88  58  36  E1      29.86F
#ELLENSBURG 3NE N/A         84  59  43  CALM    29.99F
#ELLENSBURG     N/A         96  56  26  E1      N/A    HX 94
#ELLENSBURG 1E  N/A         86  N/A N/A CALM    N/A
#KITTITAS 4N    N/A         91  60  36  SW1     30.03F HX 91
#KITTITAS 3S    N/A         84  62  48  CALM    29.89F
#THORP 6N       N/A         86  53  32  W9      29.92F
$$

WAZ027-252110-
YAKIMA VALLEY

CITY            SKY/WX      TMP DP  RH  WIND    PRES   REMARKS
SUNNYSIDE AP    PTCLDY      89  54  31  S5      29.95F
YAKIMA AIRPORT  MOSUNNY     95  48  20  E5      29.96F HX 91
YAKIMA-VAGABOND N/A         92  47  21  W6      29.95F HX 88
#DONALD 2NE     N/A         95  18   6  S1      29.94F HX 90
#GRANDVIEW      N/A         89  50  26  CALM    29.91F
#MABTON         N/A         89  57  34  N1      29.93F
#NACHES 2SW     N/A         88  63  43  SE2     30.01F
#TERRACE HTS    N/A         92  55  29  SW1     29.86F HX 90
#WEST VALLEY    N/A         89  53  29  CALM    29.88F
#W YAKIMA       N/A         90  56  32  SE1     29.89F HX 88
#WHITE SWAN 5E  N/A         88  60  39  NE5     29.90F
#WILEY CITY 3W  N/A         90  47  23  N1      29.94F HX 87
$$

WAZ028-252110-
LOWER COLUMBIA BASIN...WASHINGTON

CITY            SKY/WX      TMP DP  RH  WIND    PRES   REMARKS
HANFORD         MOSUNNY     94  45  19  N6      29.92F HX 90
PASCO           PTCLDY      93  45  19  W6      29.93F HX 89
RICHLAND AWOS   PTCLDY      94  48  21  CALM    29.93F HX 91
#BENTON CITY    N/A         91  51  26  N6      29.80F HX 88
#CONNELL 5N     N/A         91  53  28  W5      29.91S HX 89
#CONNELL 5NW    N/A         89  56  33  W3      29.87F
#ELTOPIA 6NW    N/A         95  57  28  CALM    28.93F HX 94
#KAHLOTUS       N/A         90  46  22  E7      29.90F HX 87
#KENNEWICK 3S   N/A         90  57  33  CALM    29.91F HX 89
#PATERSON       N/A         89  50  26  CALM    29.89F
#SAGEMOOR 2W    N/A         90  54  30  N1      29.77F HX 88
#TOUCHET 2S     N/A         92  56  30  N1      29.89F HX 90
#WEST PASCO     N/A         92  57  31  NW1     29.92F HX 91
$$

WAZ029-252110-
FOOTHILLS OF THE BLUES...WASHINGTON

CITY            SKY/WX      TMP DP  RH  WIND    PRES   REMARKS
WALLA WALLA AP  SUNNY       91  45  20  VRB7    29.96F HX 87
#CLYDE 6NW      N/A         90  48  24  SW6     29.88F HX 87
#DAYTON SCHOOL  N/A         90  45  21  N3      29.98F HX 86
#LOWDEN 2SE     N/A         91  56  31  W3      29.89F HX 89
#PLEASANT VIEW 1N/A         91  44  20  E5      29.92F HX 87
#PRESCOTT       N/A         94  52  24  CALM    29.88F HX 91
#WHITMAN COLLEGEN/A         88  52  29  W2      29.94F
#WAITSBURG 5S   N/A         92  49  23  N3      29.98F HX 89
#WAITSBURG 8N   N/A         99  33  10  S5      29.92S HX 94
#WALLA WALLA U  N/A         90  50  26  CALM    29.90F HX 87
#WHITMAN MISSIONN/A         91  56  31  CALM    29.91F HX 89
$$

WAZ030-252110-
BLUE MOUNTAINS...WASHINGTON

CITY            SKY/WX      TMP DP  RH  WIND    PRES   REMARKS
#DIXIE 5SE      N/A         82  46  28  NW6     30.01F
$$

ORZ009-041-WAZ024-252110-
COLUMBIA RIVER GORGE

CITY            SKY/WX      TMP DP  RH  WIND    PRES   REMARKS
HOOD RIVER AP   SUNNY       84  57  40  NW12    29.97F
THE DALLES AP   SUNNY       89  55  32  N17G24  29.92F
#ARLINGTON AIRPON/A         90  50  26  NW5     29.90F HX 87
#LYLE           N/A         83  61  48  NW7     29.93F
#MARYHILL 2W    N/A         90  54  30  CALM    N/A    HX 88
#MOSIER 1S      N/A         83  48  30  NW6     29.97S
#MURDOCK        N/A         84  61  46  W13     29.87F
#RUFUS DOT      N/A         89  57  34  NW7     N/A
#SMITHVILLE     N/A         88  59  38  NW15    29.93F

$$

ORZ510-252110-
NORTH CENTRAL OREGON

CITY            SKY/WX      TMP DP  RH  WIND    PRES   REMARKS
#ANTELOPE       N/A         86  48  27  NE7     29.73F
#CHENOWITH 1W   N/A         79  56  45  W14     N/A
#COW CYN RST AREN/A         84  N/A N/A N3      N/A
#DUFUR 9E       N/A         84  49  30  W7      29.94F
#GRASS VALLEY 1SN/A         89  50  26  NE3     29.98F
#KENT DOT       N/A         87  47  25  N2      N/A
#SHANIKO 5WSW   N/A         85  46  26  N12     N/A
#SHANIKO 4NW    N/A         81  59  47  VRB9    30.11F
#TYGH VALLEY 2NEN/A         91  56  31  N3      29.88F HX 89
#WAPANITIA AIRPON/A         90  49  25  NE1     29.91F HX 87
#WASCO 5NE      N/A         91  53  28  CALM    29.90F HX 89
$$

ORZ511-252110-
CENTRAL OREGON

CITY            SKY/WX      TMP DP  RH  WIND    PRES   REMARKS
BEND AIRPORT    SUNNY       84  39  20  VRB5    30.07F
MADRAS AIRPORT  SUNNY       93  43  18  MISG    30.06F HX 89
PRINEVILLE AP   SUNNY       86  39  19  VRB6    30.06F
REDMOND AIRPORT SUNNY       88  36  16  N7      30.06F
#ASHWOOD SCHOOL N/A         87  38  18  CALM    29.99F
#BEND 1SW       N/A         87  42  21  E3      N/A
#BEND-AWBREY    N/A         84  44  25  N3      30.01F
#CULVER         N/A         86  43  22  CALM    29.83F
#CULVER 8W      N/A         87  31  13  CALM    30.05F
#MADRAS 4S      N/A         86  28  12  CALM    30.10F
#POWELL BUTTE   N/A         88  48  25  W3      30.01F
#PRINEVILLE 3N  N/A         87  50  28  SW3     29.93F
#WARM SPRINGS   N/A         92  52  26  CALM    29.96F HX 89

$$


ORZ509-252110-
EAST SLOPES OF OREGON CASCADES

CITY            SKY/WX      TMP DP  RH  WIND    PRES   REMARKS
SISTERS AWOS    N/A         84  43  24  NE8     30.04F
#CAMP SHERMAN   N/A         94  42  17  N1      29.96F HX 90
#LA PINE DOT    N/A         89  31  13  NW1     N/A
#LA PINE 4NW    N/A         84  47  28  CALM    29.92F
#LAVA BUTTE DOT N/A         83  46  27  CALM    N/A
#SISTERS AIRPOR N/A         85  53  33  N7      30.17S
#SISTERS ODOT   N/A         84  N/A N/A N3      N/A
#SISTERS 3N     N/A         84  46  27  E6      30.06S
#SUNRIVER       N/A         86  42  21  N1      29.90F
#TUMALO 3W      N/A         82  42  24  N6      29.76F
#WANOGA BUTTE D N/A         74  38  27  SE8     N/A

$$

ORZ044-252110-
LOWER COLUMBIA BASIN...OREGON

CITY            SKY/WX      TMP DP  RH  WIND    PRES   REMARKS
HERMISTON       SUNNY       93  48  22  VRB3    29.94F HX 90
#BOARDMAN 8SW   N/A         92  49  23  NW2     29.90F HX 89
#ECHO 8SW       N/A         91  52  27  CALM    29.95F HX 88
#I-84 EX 198 DOTN/A         89  57  34  E6      N/A
#UMATILLA       N/A         93  50  23  CALM    29.84F HX 90
$$

ORZ507-252110-
NORTHERN FOOTHILLS OF THE BLUES

CITY            SKY/WX      TMP DP  RH  WIND    PRES   REMARKS
PENDLETON AIRPT SUNNY       92  42  18  VRB7    29.98F HX 88
#ADAMS 3WNW     N/A         90  46  22  N9      29.88F HX 87
#ATHENA         N/A         88  47  24  E5      29.93F
#CAYUSE         N/A         89  47  24  NE1     29.88F
#HELIX SCHOOL   N/A         87  46  24  N7      29.91F
#HELIX 3N       N/A         87  46  24  N10     29.98S
#HOLDMAN 5SE    N/A         91  49  24  CALM    29.96F HX 88
#HOLDMAN 6E     N/A         91  47  22  SE2     29.71F HX 88
#M-F GROVE ELEM N/A         88  47  24  CALM    29.94F
#M-FREEWATER 5SEN/A         89  57  34  N1      29.96F
#PENDLETON DNTN N/A         94  49  22  CALM    29.98S HX 91
#PDT AQUATIC CTRN/A         89  49  25  CALM    29.80S
#PDT SUNRIDGE   N/A         92  49  23  NE1     29.97F HX 89
#PENDLETON 7NW  N/A         90  59  35  W7      31.91S HX 89
#PILOT ROCK 1S  N/A         87  48  26  W1      30.00F
#PILOT ROCK     N/A         89  45  22  N5      30.00F
#TUTUILLA       N/A         91  48  23  CALM    29.93F HX 88
#UMAPINE 2E     N/A         91  57  32  CALM    29.91F HX 90
#WESTON SCHOOL  N/A         85  41  21  SE6     29.84F

$$

ORZ508-252110-
SOUTHERN FOOTHILLS OF THE BLUES

CITY            SKY/WX      TMP DP  RH  WIND    PRES   REMARKS
LEXINGTON       SUNNY       91  45  20  VRB6    30.02F HX 87
#AJAX           N/A         87  45  23  N6      27.76
#CONDON 5W      N/A         83  41  23  N5      30.05F
#HEPPNER EOC    N/A         89  46  23  W3      29.83F
#HEPPNER 4NE    N/A         84  45  26  W3      29.90F
#LEXINGTON 2SE  N/A         92  48  22  CALM    29.94F HX 89
#RUGGS 5NE      N/A         91  46  21  N3      30.20F HX 87
#RUGGS 2SW      N/A         87  45  23  NE7     29.91F

$$

ORZ502-503-252110-
BLUE MOUNTAINS

CITY            SKY/WX      TMP DP  RH  WIND    PRES   REMARKS
MEACHAM         SUNNY       84  38  19  VRB5    30.11F
#BATTLE MTN DOT N/A         79  47  32  NE2     N/A
#CUTSFORTH PARK N/A         83  46  27  NE1     29.90F
#GREENHORN 9SW  N/A         90  44  20  W5      30.05F HX 86
#HARDMAN 10S    N/A         61  34  36  N5      30.22S
#HEPPNER 15SE   N/A         86  45  24  W5      25.64F
#LADD CYN SMT   N/A         84  49  30  NW8     N/A
#LADD CREEK ODOTN/A         84  51  32  NE10    N/A
#LONG CREEK HS  N/A         82  41  23  CALM    N/A
#N POWDER DOT   N/A         86  54  34  NE8     N/A
#PIKES PEAK     N/A         79  47  32  CALM    27.99S
#TOLLGATE       N/A         74  49  41  W2      30.03S
#TROY SCHOOL    N/A         95  55  26  E1      29.72F HX 93
#UKIAH          N/A         84  46  27  N3      29.85F
#WESTON 4E      N/A         84  49  30  CALM    29.87F
$$

ORZ505-252110-
JOHN DAY BASIN

CITY            SKY/WX      TMP DP  RH  WIND    PRES   REMARKS
JOHN DAY        SUNNY       90  36  15  N5      30.07F HX 86
#DAYVILLE SCHOOLN/A         90  39  17  NW5     29.97F HX 86
#MITCHELL       N/A         88  54  31  CALM    30.20
#MITCHELL 8NW   N/A         83  40  22  W2      30.07F
#MONUMENT HS    N/A         90  43  20  CALM    29.84F HX 86
#MT. VERNON 5SE N/A         85  42  22  SW3     30.04F
#SPRAY SCHOOL   N/A         93  N/A N/A CALM    N/A
$$

ORZ506-252110-
OCHOCO AND JOHN DAY HIGHLANDS

CITY            SKY/WX      TMP DP  RH  WIND    PRES   REMARKS
#BUCK CREEK DOT N/A         86  39  19  SW9     N/A
#HORSE RIDGE DO N/A         82  34  18  NW2     N/A
#KEYES SMT DOT  N/A         82  44  26  S2      N/A
#PAULINA SCHOOL N/A         87  34  15  CALM    N/A
#PINE MTN OBS   N/A         72  41  33  NW3     N/A
#PRAIRIE CITY   N/A         90  47  23  W1      30.20F HX 87
#SENECA         N/A         88  N/A N/A W5      N/A
#SENECA 9NW     N/A         88  36  16  E1      29.85F
$$

ORZ049-252110-
GRANDE RONDE VALLEY

CITY            SKY/WX      TMP DP  RH  WIND    PRES   REMARKS
LA GRANDE       SUNNY       88  46  23  N6      30.03F
#COVE           N/A         85  58  40  NW1     30.07F
#COVE SCHOOL    N/A         89  53  29  CALM    30.06F
#COVE 6NW       N/A         84  52  33  CALM    29.91F
#ELGIN 3N       N/A         91  43  19  CALM    30.00F HX 87
#ELGIN 1E       N/A         88  46  23  CALM    N/A
#IMBLER SCHOOL  N/A         86  45  24  NW1     29.98F
#ISLAND CITY 4N N/A         80  63  56  CALM    30.04F
#LADD CYN DOT   N/A         87  55  34  N5      N/A
#UNION 1S       N/A         83  53  36  SW1     29.81F
$$

ORZ050-252110-
WALLOWA COUNTY

CITY            SKY/WX      TMP DP  RH  WIND    PRES   REMARKS
JOSEPH AIRPORT  SUNNY       86  39  19  CALM    N/A
#ENTERPRISE AP  N/A         49  29  46  CALM    30.03F
#ENTERPRISE HS  N/A         84  52  33  S1      30.09F
#IMNAHA SCHOOL  N/A         92  46  21  N6      29.96F HX 88
#IMNAHA 10S     N/A         90  49  25  NE5     30.02F HX 87
#JOSEPH 3N      N/A         82  47  29  SE2     30.11F
#JOSEPH 3W      N/A         80  45  29  N2      29.99F
#LOSTINE        N/A         87  46  24  CALM    29.71F
#LOSTINE 3SE    N/A         86  43  22  VRB6    30.05F
#MT HOWARD 8000 N/A         65  43  45  NW1     30.40S
#PROMISE 1S     N/A         82  47  29  N3      29.99F
#WALLOWA SCHOOL N/A         89  45  22  E1      30.00F



$$



USA.gov is the U.S. government's official web portal to all federal, state and local government web resources and services.